This demonstration page uses our WeatherBlox Daily Observations layout. Learn more.

Left ArrowRight Arrow

39.95238, -75.16362

Hourly Observations for May 25, 2015

Temp ( °F °C ) Dew Point ( °F °C ) Humidity (%) Winds ( mph kmh ) Pressure ( in mb ) Visibility ( mi km ) Precip ( " mm )
12:54 am 00:54 Cloudy 66 18.9 56 13.3 70 70 S 7 11 30.28 1025 10 16 0.00 0.00
1:54 am 01:54 Mostly Cloudy 65 18.3 56 13.3 73 73 S 6 9 30.27 1025 10 16 0.00 0.00
2:54 am 02:54 Cloudy 65 18.3 56 13.3 73 73 S 3 6 30.26 1025 10 16 0.00 0.00
3:54 am 03:54 Cloudy 65 18.3 56 13.3 73 73 S 6 9 30.27 1025 10 16 0.00 0.00
4:54 am 04:54 Cloudy 64 17.8 56 13.3 75 75 SE 6 9 30.27 1025 10 16 0.00 0.00
5:54 am 05:54 Mostly Cloudy 65 18.3 57 13.9 76 76 S 6 9 30.27 1025 10 16 0.00 0.00
6:54 am 06:54 Partly Cloudy 65 18.3 58 14.4 78 78 S 6 9 30.27 1025 10 16 0.00 0.00
7:54 am 07:54 Partly Cloudy 69 20.6 59 15 70 70 SSW 8 13 30.28 1025 10 16 0.00 0.00
8:54 am 08:54 Partly Cloudy 73 22.8 59 15 62 62 SW 12 19 30.29 1026 10 16 0.00 0.00
9:54 am 09:54 Mostly Sunny 76 24.4 58 14.4 54 54 SW 12 19 30.28 1025 10 16 0.00 0.00
10:54 am 10:54 Partly Cloudy 79 26.1 58 14.4 49 49 SSW 13 20 30.27 1025 10 16 0.00 0.00
11:54 am 11:54 Partly Cloudy 82 27.8 57 13.9 42 42 SW 14 22 30.25 1024 10 16 0.00 0.00
12:54 pm 12:54 Partly Cloudy 85 29.4 56 13.3 37 37 SSW 18 30 30.24 1024 10 16 0.00 0.00
1:54 pm 13:54 Partly Cloudy 86 30 54 12.2 33 33 SSW 17 28 30.22 1023 10 16 0.00 0.00
2:54 pm 14:54 Mostly Cloudy 86 30 55 12.8 35 35 SSW 17 28 30.20 1023 10 16 0.00 0.00
3:54 pm 15:54 Mostly Cloudy 86 30 55 12.8 35 35 SW 22 35 30.19 1023 10 16 0.00 0.00
4:54 pm 16:54 Mostly Cloudy 86 30 54 12.2 33 33 SW 21 33 30.20 1023 10 16 0.00 0.00
5:54 pm 17:54 Mostly Cloudy 83 28.3 56 13.3 40 40 S 18 30 30.19 1022 10 16 0.00 0.00
6:02 pm 18:02 Mostly Cloudy 83 28.3 56 13.3 40 40 SSW 17 28 30.18 1022 10 16 0.00 0.00
6:54 pm 18:54 Mostly Cloudy 83 28.3 57 13.9 41 41 SSW 18 30 30.19 1022 10 16 0.00 0.00
7:54 pm 19:54 Partly Cloudy 80 26.7 57 13.9 45 45 SSW 17 28 30.19 1023 10 16 0.00 0.00
8:54 pm 20:54 Partly Cloudy 77 25 58 14.4 52 52 S 10 17 30.20 1023 10 16 0.00 0.00
9:54 pm 21:54 Partly Cloudy 75 23.9 59 15 58 58 S 9 15 30.22 1023 10 16 0.00 0.00
10:54 pm 22:54 Partly Cloudy 73 22.8 57 13.9 57 57 S 9 15 30.23 1024 10 16 0.00 0.00
11:54 pm 23:54 Mostly Clear 71 21.7 55 12.8 57 57 SSW 8 13 30.23 1024 10 16 0.00 0.00

Powered by AerisWeather